When you browse on this site, cookies collect data to enhance your experience and personalize the content and advertising you see.
Visit our Privacy Policy to learn more. By continuing to use the site, you agree to this use of cookies and data.
  • en Suisse
  • Liste des pays
  • À 7 jours
  • Température de l'eau
  • Carte météo
  • Widgets météo
  • user-avatar
    Se connecter

    Météo par heure à Ourense

    Ce jour, 17 Septembre, Mardi

    Heure Température Précipitation Vent Pression Humidité
    00:00 +19°C° 0 mm 1 m/s 735 mmHg 87%
    01:00 +19°C° 0 mm 1 m/s 735 mmHg 87%
    02:00 +18°C° 0 mm 1 m/s 735 mmHg 88%
    03:00 +18°C° 0 mm 1 m/s 735 mmHg 87%
    04:00 +18°C° 0 mm 1 m/s 735 mmHg 87%
    05:00 +18°C° 0 mm 1 m/s 735 mmHg 86%
    06:00 +21°C° 0 mm 1 m/s 735 mmHg 78%
    07:00 +23°C° 0 mm 1 m/s 736 mmHg 69%
    08:00 +25°C° 0 mm 1 m/s 736 mmHg 61%
    09:00 +28°C° 0 mm 1 m/s 736 mmHg 51%
    10:00 +30°C° 0 mm 1 m/s 736 mmHg 42%
    11:00 +33°C° 0 mm 1 m/s 736 mmHg 33%
    12:00 +32°C° 0 mm 1 m/s 735 mmHg 33%
    13:00 +31°C° 0 mm 1 m/s 735 mmHg 34%
    14:00 +31°C° 0 mm 1 m/s 734 mmHg 35%
    15:00 +29°C° 0 mm 1 m/s 734 mmHg 41%
    16:00 +28°C° 0 mm 1 m/s 734 mmHg 46%
    17:00 +26°C° 0 mm 1 m/s 734 mmHg 52%
    18:00 +24°C° 0.3 mm 1 m/s 734 mmHg 62%
    19:00 +22°C° 0.3 mm 1 m/s 734 mmHg 72%
    20:00 +18°C° 0.3 mm 0 m/s 735 mmHg 83%
    21:00 +18°C° 0 mm 0 m/s 734 mmHg 84%
    22:00 +17°C° 0 mm 0 m/s 734 mmHg 85%
    23:00 +17°C° 0 mm 0 m/s 734 mmHg 86%

    Demain, 18 Septembre, Mercredi

    Heure Température Précipitation Vent Pression Humidité
    00:00 +17°C° 0 mm 0 m/s 734 mmHg 87%
    01:00 +17°C° 0 mm 0 m/s 734 mmHg 88%
    02:00 +16°C° 0 mm 0 m/s 734 mmHg 88%
    03:00 +16°C° 0 mm 0 m/s 734 mmHg 88%
    04:00 +16°C° 0 mm 0 m/s 734 mmHg 88%
    05:00 +18°C° 0 mm 1 m/s 734 mmHg 88%
    06:00 +18°C° 0 mm 0 m/s 734 mmHg 78%
    07:00 +21°C° 0 mm 0 m/s 735 mmHg 68%
    08:00 +24°C° 0 mm 0 m/s 735 mmHg 58%
    09:00 +26°C° 0 mm 0 m/s 735 mmHg 49%
    10:00 +29°C° 0 mm 0 m/s 735 mmHg 41%
    11:00 +33°C° 0 mm 1 m/s 735 mmHg 33%
    12:00 +33°C° 0 mm 1 m/s 735 mmHg 33%
    13:00 +33°C° 0 mm 1 m/s 735 mmHg 33%
    14:00 +32°C° 0 mm 1 m/s 735 mmHg 33%
    15:00 +30°C° 0.2 mm 1 m/s 735 mmHg 42%
    16:00 +28°C° 0.2 mm 1 m/s 734 mmHg 51%
    17:00 +26°C° 0.2 mm 2 m/s 734 mmHg 60%
    18:00 +24°C° 0.6 mm 1 m/s 735 mmHg 70%
    19:00 +22°C° 0.6 mm 1 m/s 735 mmHg 81%
    20:00 +18°C° 0.6 mm 0 m/s 736 mmHg 91%
    21:00 +17°C° 0 mm 0 m/s 735 mmHg 92%
    22:00 +17°C° 0 mm 0 m/s 735 mmHg 92%
    23:00 +17°C° 0 mm 0 m/s 735 mmHg 93%

    Après-demain, 19 Septembre, Jeudi

    Heure Température Précipitation Vent Pression Humidité
    00:00 +17°C° 0 mm 0 m/s 735 mmHg 93%
    01:00 +16°C° 0 mm 0 m/s 735 mmHg 93%
    02:00 +16°C° 0 mm 0 m/s 735 mmHg 93%
    03:00 +16°C° 0 mm 0 m/s 735 mmHg 93%
    04:00 +16°C° 0 mm 0 m/s 735 mmHg 93%
    05:00 +16°C° 0 mm 0 m/s 735 mmHg 93%
    06:00 +18°C° 0.1 mm 0 m/s 735 mmHg 86%
    07:00 +20°C° 0.1 mm 0 m/s 735 mmHg 79%
    08:00 +22°C° 0.1 mm 0 m/s 735 mmHg 71%
    09:00 +25°C° 0.1 mm 0 m/s 736 mmHg 61%
    10:00 +27°C° 0.1 mm 0 m/s 736 mmHg 51%
    11:00 +32°C° 0.1 mm 1 m/s 736 mmHg 40%
    12:00 +31°C° 0.1 mm 1 m/s 735 mmHg 40%
    13:00 +31°C° 0.1 mm 1 m/s 735 mmHg 39%
    14:00 +31°C° 0.1 mm 1 m/s 734 mmHg 38%
    15:00 +28°C° 1.3 mm 2 m/s 734 mmHg 53%
    16:00 +25°C° 1.3 mm 2 m/s 734 mmHg 67%
    17:00 +23°C° 1.3 mm 2 m/s 734 mmHg 82%
    18:00 +20°C° 0.7 mm 2 m/s 734 mmHg 86%
    19:00 +20°C° 0.7 mm 1 m/s 735 mmHg 90%
    20:00 +19°C° 0.7 mm 1 m/s 735 mmHg 95%
    21:00 +19°C° 0.3 mm 1 m/s 735 mmHg 94%
    22:00 +19°C° 0.3 mm 1 m/s 735 mmHg 94%
    23:00 +17°C° 0.3 mm 0 m/s 734 mmHg 93%

    20 Septembre, Vendredi

    Heure Température Précipitation Vent Pression Humidité
    00:00 +17°C° 0 mm 0 m/s 734 mmHg 93%
    01:00 +16°C° 0 mm 0 m/s 734 mmHg 93%
    02:00 +16°C° 0 mm 0 m/s 733 mmHg 93%
    03:00 +16°C° 0 mm 0 m/s 733 mmHg 94%
    04:00 +15°C° 0 mm 0 m/s 733 mmHg 94%
    05:00 +15°C° 0 mm 0 m/s 733 mmHg 94%
    06:00 +17°C° 0 mm 0 m/s 733 mmHg 89%
    07:00 +18°C° 0 mm 0 m/s 733 mmHg 84%
    08:00 +20°C° 0 mm 0 m/s 734 mmHg 79%
    09:00 +24°C° 0.2 mm 1 m/s 734 mmHg 70%
    10:00 +26°C° 0.2 mm 1 m/s 734 mmHg 61%
    11:00 +28°C° 0.2 mm 1 m/s 734 mmHg 53%
    12:00 +28°C° 0.5 mm 2 m/s 733 mmHg 53%
    13:00 +27°C° 0.5 mm 2 m/s 733 mmHg 53%
    14:00 +27°C° 0.5 mm 2 m/s 732 mmHg 53%
    15:00 +25°C° 0.2 mm 2 m/s 732 mmHg 61%
    16:00 +24°C° 0.2 mm 2 m/s 732 mmHg 69%
    17:00 +21°C° 0.2 mm 2 m/s 732 mmHg 77%
    18:00 +21°C° 0 mm 1 m/s 732 mmHg 83%
    19:00 +19°C° 0 mm 1 m/s 733 mmHg 88%
    20:00 +18°C° 0 mm 1 m/s 733 mmHg 93%
    21:00 +18°C° 0 mm 1 m/s 733 mmHg 94%
    22:00 +16°C° 0 mm 1 m/s 732 mmHg 95%
    23:00 +16°C° 0 mm 1 m/s 732 mmHg 95%

    21 Septembre, Samedi

    Heure Température Précipitation Vent Pression Humidité
    00:00 +15°C° 0 mm 1 m/s 732 mmHg 95%
    01:00 +15°C° 0 mm 1 m/s 732 mmHg 95%
    02:00 +15°C° 0 mm 1 m/s 732 mmHg 95%
    03:00 +15°C° 0 mm 1 m/s 732 mmHg 95%
    04:00 +14°C° 0 mm 1 m/s 731 mmHg 94%
    05:00 +14°C° 0 mm 1 m/s 731 mmHg 94%
    06:00 +16°C° 0 mm 1 m/s 732 mmHg 87%
    07:00 +19°C° 0 mm 1 m/s 732 mmHg 80%
    08:00 +20°C° 0 mm 1 m/s 732 mmHg 73%
    09:00 +21°C° 0 mm 1 m/s 732 mmHg 66%
    10:00 +23°C° 0 mm 2 m/s 732 mmHg 59%
    11:00 +24°C° 0 mm 2 m/s 732 mmHg 53%
    12:00 +24°C° 0 mm 3 m/s 732 mmHg 52%
    13:00 +25°C° 0 mm 3 m/s 732 mmHg 50%
    14:00 +25°C° 0 mm 4 m/s 732 mmHg 49%
    15:00 +24°C° 0 mm 3 m/s 732 mmHg 54%
    16:00 +22°C° 0 mm 3 m/s 732 mmHg 59%
    17:00 +21°C° 0 mm 2 m/s 732 mmHg 64%
    18:00 +20°C° 0 mm 2 m/s 732 mmHg 70%
    19:00 +19°C° 0 mm 1 m/s 733 mmHg 76%
    20:00 +18°C° 0 mm 1 m/s 733 mmHg 82%
    21:00 +18°C° 0 mm 1 m/s 733 mmHg 84%
    22:00 +18°C° 0 mm 1 m/s 733 mmHg 87%
    23:00 +16°C° 0 mm 1 m/s 733 mmHg 90%

    22 Septembre, Dimanche

    Heure Température Précipitation Vent Pression Humidité
    00:00 +16°C° 0.4 mm 1 m/s 733 mmHg 90%
    01:00 +18°C° 0.4 mm 1 m/s 733 mmHg 90%
    02:00 +18°C° 0.4 mm 1 m/s 733 mmHg 90%
    03:00 +18°C° 0.5 mm 1 m/s 733 mmHg 92%
    04:00 +18°C° 0.5 mm 1 m/s 733 mmHg 94%
    05:00 +16°C° 0.5 mm 0 m/s 733 mmHg 95%
    06:00 +18°C° 0.8 mm 1 m/s 734 mmHg 94%
    07:00 +18°C° 0.8 mm 1 m/s 734 mmHg 93%
    08:00 +18°C° 0.8 mm 1 m/s 734 mmHg 92%
    09:00 +19°C° 0.2 mm 1 m/s 735 mmHg 88%
    10:00 +19°C° 0.2 mm 1 m/s 735 mmHg 84%
    11:00 +19°C° 0.2 mm 1 m/s 735 mmHg 81%
    12:00 +21°C° 0.1 mm 1 m/s 735 mmHg 72%
    13:00 +22°C° 0.1 mm 1 m/s 736 mmHg 64%
    14:00 +24°C° 0.1 mm 2 m/s 736 mmHg 56%
    15:00 +21°C° 0 mm 2 m/s 736 mmHg 60%
    16:00 +20°C° 0 mm 2 m/s 736 mmHg 64%
    17:00 +19°C° 0 mm 2 m/s 737 mmHg 68%
    18:00 +19°C° 0 mm 1 m/s 737 mmHg 75%
    19:00 +16°C° 0 mm 1 m/s 738 mmHg 82%
    20:00 +14°C° 0 mm 1 m/s 738 mmHg 89%
    21:00 +13°C° 0 mm 0 m/s 738 mmHg 90%
    22:00 +12°C° 0 mm 0 m/s 738 mmHg 92%
    23:00 +12°C° 0 mm 0 m/s 739 mmHg 93%
    Voir plus